HISPASAT 30W-6 (43228 NORAD) Tracking and Keplerian Element Data

This shows tracking and keplerian element data for the satellite.

Feedback or suggestion? Click here.




ElementValue
Catalog43228
NameHISPASAT 30W-6
Epoch Orbit147
Epoch Day195.27218016
Epoch Year2018
RAAN48.856
Inclination0.0362
Eccentricity0.000489
Argument of Perigee44.7622
Mean Anonmoly266.4252
Mean Motion1.0027215
Decay Rate-2.31E-06
L11 43228U 18023A 18195.27218016 -.00000231 00000-0 00000+0 0 9990
L22 43228 0.0362 48.8560 0004890 44.7622 266.4252 1.00272150 1476

Live tracking and technical data element details for HISPASAT 30W-6 (NORAD 43228). HISPASAT 30W-6 can be tracked NOW for your location showing map with azimuth and elevation plus other details from your city location.

Track the satellite on the map from your city or location and see movement details for azimuth, elevation, latitude, longitude, range, height, and movement on the map or in text.







IsCatalogInMostPopularTable: catalog: 43228, numindb: 127
Update: records affected: 1



GetName: 43228 HISPASAT 30W-6

Hit Count: updated at: Sun, 15 Jul 2018 22:55:02 GMT